Location: Frizzleburg
(41.0764°N, 80.4548°W)
Time: 17:00:04
(UTC+00:00)

COSMOS 2428 - Pass Details

Date: 17 November 2019
Orbit: 844 x 858 km, 70.9° (Epoch: 05 December)

Event Time Altitude Azimuth Distance (km) Brightness Sun altitude
Rises 11:29:48 0° 342° (NNW) 3,425 5.5 -8.2°
Reaches altitude 10° 11:32:27 10° 351° (N) 2,488 4.9 -7.7°
Maximum altitude 11:37:44 38° 58° (ENE) 1,288 4.1 -6.7°
Drops below altitude 10° 11:43:01 10° 126° (SE) 2,483 6.7 -5.8°
Sets 11:45:39 0° 134° (SE) 3,417 7.3 -5.4°
